Location: Lafig�re
(44.4503°N, 4.0357°E)
Time: 15:13:20
(UTC+00:00)

ARGOS - Pass Details

Date: 29 January 2021
Orbit: 821 x 834 km, 98.4° (Epoch: 05 March)

Event Time Altitude Azimuth Distance (km) Brightness Sun altitude
Rises 19:43:00 0° 196° (SSW) 3,342 6.4 -31.1°
Reaches altitude 10° 19:45:40 10° 207° (SSW) 2,416 5.8 -31.5°
Maximum altitude 19:50:13 28° 266° (W) 1,505 5.0 -32.4°
Drops below altitude 10° 19:54:49 10° 324° (NW) 2,438 6.0 -33.2°
Sets 19:57:31 0° 336° (NNW) 3,378 6.7 -33.6°
